GW5704 Weather Reports


time (UTC)temp
C
wind
direction
speed
KPH
gust
KPH
rain 1hr
cm
rain 24hr
cm
rain mn
cm
humidity
%
barometer
mb
20260509234049 16 68 0.0 1.6 0.00 0.00 0.00 54 1014.3
20260509233049 16 113 0.0 0.0 0.00 0.00 0.00 52 1014.3
20260509232047 17 23 0.0 0.0 0.00 0.00 0.00 50 1014.3
20260509231049 17 338 0.0 0.0 0.00 0.00 0.00 50 1013.9
20260509230046 17 360 0.0 0.0 0.00 0.00 0.00 49 1013.9
20260509225049 17 360 1.6 3.2 0.00 0.00 0.00 47 1013.9
20260509224047 17 360 1.6 3.2 0.00 0.00 0.00 48 1013.9
20260509223047 18 360 3.2 4.8 0.00 0.00 0.00 46 1013.9
20260509222047 18 293 3.2 4.8 0.00 0.00 0.00 49 1013.6
20260509221048 17 338 1.6 3.2 0.00 0.00 0.00 51 1013.6
20260509220047 17 23 3.2 4.8 0.00 0.00 0.00 51 1013.6
20260509215047 17 270 4.8 4.8 0.00 0.00 0.00 50 1013.9
20260509214046 17 248 3.2 3.2 0.00 0.00 0.00 51 1013.6
20260509213046 18 315 1.6 3.2 0.00 0.00 0.00 49 1013.6
20260509212047 18 360 1.6 3.2 0.00 0.00 0.00 49 1013.6
20260509211049 18 315 3.2 4.8 0.00 0.00 0.00 49 1013.6
20260509210047 17 270 3.2 4.8 0.00 0.00 0.00 51 1013.2
20260509205047 17 248 3.2 3.2 0.00 0.00 0.00 48 1013.6
20260509204047 18 360 3.2 3.2 0.00 0.00 0.00 48 1013.6
20260509203047 17 360 4.8 6.4 0.00 0.00 0.00 47 1013.2
20260509202047 17 248 1.6 3.2 0.00 0.00 0.00 48 1013.2
20260509201047 18 248 1.6 3.2 0.00 0.00 0.00 45 1013.2
20260509200047 18 315 4.8 8.0 0.00 0.00 0.00 44 1013.2
20260509195047 20 270 4.8 6.4 0.00 0.00 0.00 42 1013.6
20260509194047 20 203 1.6 3.2 0.00 0.00 0.00 42 1013.6
20260509193047 20 248 3.2 4.8 0.00 0.00 0.00 44 1013.6
20260509192047 20 338 4.8 6.4 0.00 0.00 0.00 41 1013.6
20260509191047 21 360 4.8 4.8 0.00 0.00 0.00 40 1013.6
20260509190046 21 360 6.4 8.0 0.00 0.00 0.00 40 1013.6
20260509185047 20 23 3.2 4.8 0.00 0.00 0.00 42 1013.9
20260509184047 19 270 4.8 8.0 0.00 0.00 0.00 44 1013.6
20260509183047 17 293 1.6 3.2 0.00 0.00 0.00 52 1013.9
20260509182048 19 23 1.6 1.6 0.00 0.00 0.00 49 1013.9
20260509181047 18 135 4.8 6.4 0.00 0.00 0.00 51 1014.3
20260509180047 17 158 1.6 3.2 0.00 0.00 0.00 55 1014.3
20260509175049 16 270 4.8 8.0 0.00 0.00 0.00 54 1014.6
20260509174047 15 270 3.2 4.8 0.00 0.00 0.00 57 1014.6
20260509173047 16 158 4.8 6.4 0.00 0.00 0.00 56 1014.6
20260509172047 16 203 4.8 6.4 0.00 0.00 0.00 55 1014.3
20260509171047 16 90 1.6 3.2 0.00 0.00 0.00 57 1014.6
20260509170047 16 90 0.0 3.2 0.00 0.00 0.00 57 1014.9
20260509165047 16 315 3.2 3.2 0.00 0.00 0.00 54 1014.9
20260509164047 16 270 1.6 3.2 0.00 0.00 0.00 52 1014.9
20260509163047 17 158 1.6 3.2 0.00 0.00 0.00 55 1014.6
20260509162048 17 248 1.6 3.2 0.00 0.00 0.00 52 1014.6
20260509161047 17 180 3.2 3.2 0.00 0.00 0.00 47 1014.6
20260509160049 16 360 0.0 1.6 0.00 0.00 0.00 51 1014.6
20260509155047 16 270 1.6 3.2 0.00 0.00 0.00 52 1014.6
20260509154051 15 315 1.6 3.2 0.00 0.00 0.00 54 1014.6
20260509153047 16 338 3.2 3.2 0.00 0.00 0.00 54 1014.6
20260509152047 16 338 3.2 3.2 0.00 0.00 0.00 54 1014.6
20260509151047 15 113 1.6 3.2 0.00 0.00 0.00 55 1014.3
20260509150047 16 270 1.6 3.2 0.00 0.00 0.00 56 1014.6
20260509145047 16 338 3.2 4.8 0.00 0.00 0.00 53 1014.6
20260509144052 16 338 4.8 4.8 0.00 0.00 0.00 56 1014.6
20260509143047 15 315 3.2 4.8 0.00 0.00 0.00 57 1014.3
20260509142047 15 293 4.8 8.0 0.00 0.00 0.00 60 1014.6
20260509141046 15 270 6.4 8.0 0.00 0.00 0.00 60 1014.9
20260509140048 13 23 3.2 3.2 0.00 0.00 0.00 65 1014.9
20260509135047 13 293 3.2 3.2 0.00 0.00 0.00 66 1014.9
20260509134049 13 315 4.8 6.4 0.00 0.00 0.00 66 1015.3
20260509133048 12 225 6.4 8.0 0.00 0.00 0.00 66 1015.3
20260509132048 12 23 4.8 6.4 0.00 0.00 0.00 67 1015.3
20260509131046 12 338 4.8 8.0 0.00 0.00 0.00 67 1014.9
20260509130046 12 315 4.8 4.8 0.00 0.00 0.00 68 1014.9
20260509125049 12 338 4.8 6.4 0.00 0.00 0.00 68 1014.9
20260509124047 11 315 4.8 6.4 0.00 0.00 0.00 69 1014.9
20260509123049 11 23 6.4 8.0 0.00 0.00 0.00 69 1014.9
20260509122047 11 360 4.8 6.4 0.00 0.00 0.00 69 1015.3
20260509121049 11 270 4.8 8.0 0.00 0.00 0.00 69 1014.9
20260509120047 11 293 4.8 4.8 0.00 0.00 0.00 69 1014.9
20260509115050 11 315 4.8 6.4 0.00 0.00 0.00 69 1014.9
20260509114047 11 293 4.8 6.4 0.00 0.00 0.00 68 1014.9
20260509113049 11 270 3.2 6.4 0.00 0.00 0.00 68 1014.9
20260509112047 11 338 4.8 8.0 0.00 0.00 0.00 68 1014.9
20260509111047 11 315 4.8 4.8 0.00 0.00 0.00 68 1014.6
20260509110049 11 293 4.8 4.8 0.00 0.00 0.00 67 1014.9
20260509105049 10 315 3.2 3.2 0.00 0.00 0.00 67 1014.6
20260509104049 10 315 4.8 4.8 0.00 0.00 0.00 66 1014.9
20260509103047 10 293 3.2 4.8 0.00 0.00 0.00 65 1014.6
20260509102047 11 338 4.8 6.4 0.00 0.00 0.00 64 1014.9
20260509101047 11 293 6.4 8.0 0.00 0.00 0.00 64 1014.9
20260509100047 10 360 4.8 4.8 0.00 0.00 0.00 64 1014.9
20260509095047 10 293 4.8 6.4 0.00 0.00 0.00 63 1014.6
20260509094047 10 293 4.8 4.8 0.00 0.00 0.00 62 1014.9
20260509093048 10 360 6.4 8.0 0.00 0.00 0.00 61 1014.9
20260509092048 10 293 6.4 8.0 0.00 0.00 0.00 60 1015.3
20260509091049 10 338 4.8 6.4 0.00 0.00 0.00 59 1014.9
20260509090046 10 315 4.8 8.0 0.00 0.00 0.00 58 1014.9
20260509085049 10 315 9.7 11.3 0.00 0.00 0.00 57 1015.3
20260509084047 10 23 4.8 8.0 0.00 0.00 0.00 56 1015.3
20260509083047 10 338 6.4 8.0 0.00 0.00 0.00 56 1014.9
20260509082047 10 338 4.8 8.0 0.00 0.00 0.00 55 1014.9
20260509081046 10 113 4.8 8.0 0.00 0.00 0.00 55 1015.3
20260509080047 10 293 6.4 8.0 0.00 0.00 0.00 54 1015.3
20260509075047 10 293 6.4 8.0 0.00 0.00 0.00 54 1015.3
20260509074047 10 270 4.8 8.0 0.00 0.00 0.00 53 1015.3
20260509073047 10 315 6.4 8.0 0.00 0.00 0.00 52 1015.6
20260509072047 11 293 6.4 8.0 0.00 0.00 0.00 52 1015.6
20260509071047 10 315 8.0 11.3 0.00 0.00 0.00 52 1015.3
20260509070049 11 315 8.0 9.7 0.00 0.00 0.00 51 1015.3
20260509065048 11 293 8.0 11.3 0.00 0.00 0.00 51 1015.6
20260509064047 11 293 6.4 8.0 0.00 0.00 0.00 50 1015.6
20260509063047 11 315 8.0 9.7 0.00 0.00 0.00 51 1015.6
20260509062046 11 270 8.0 9.7 0.00 0.00 0.00 50 1015.3
20260509061047 11 338 9.7 12.9 0.00 0.00 0.00 50 1015.6
20260509060047 11 315 8.0 11.3 0.00 0.00 0.00 50 1016.0
20260509055047 10 338 8.0 8.0 0.00 0.00 0.00 51 1016.0
20260509054046 10 270 6.4 9.7 0.00 0.00 0.00 51 1016.0
20260509053047 10 360 8.0 11.3 0.00 0.00 0.00 51 1016.0
20260509052047 10 315 8.0 11.3 0.00 0.00 0.00 51 1016.0
20260509051049 11 248 11.3 11.3 0.00 0.00 0.00 50 1016.3
20260509050047 11 248 8.0 9.7 0.00 0.00 0.00 49 1016.0
20260509045052 11 338 6.4 8.0 0.00 0.00 0.00 49 1016.0
20260509044051 11 293 4.8 6.4 0.00 0.00 0.00 49 1016.0
20260509043049 11 293 9.7 11.3 0.00 0.00 0.00 48 1016.0
20260509042048 11 293 4.8 8.0 0.00 0.00 0.00 48 1016.0
20260509041047 11 270 6.4 8.0 0.00 0.00 0.00 48 1016.0
20260509040048 11 293 8.0 9.7 0.00 0.00 0.00 48 1016.3
20260509035047 11 293 6.4 8.0 0.00 0.00 0.00 48 1016.3
20260509034047 11 315 8.0 14.5 0.00 0.00 0.00 49 1016.3
20260509033047 11 248 9.7 14.5 0.00 0.00 0.00 49 1016.3
20260509032047 11 248 9.7 16.1 0.00 0.00 0.00 49 1016.0
20260509031047 12 293 6.4 8.0 0.00 0.00 0.00 48 1016.3
20260509030047 12 293 11.3 17.7 0.00 0.00 0.00 49 1016.3
20260509025047 12 338 8.0 11.3 0.00 0.00 0.00 49 1016.3
20260509024047 12 293 6.4 9.7 0.00 0.00 0.00 49 1016.6
20260509023048 12 315 6.4 8.0 0.00 0.00 0.00 49 1016.6
20260509022047 12 270 8.0 11.3 0.00 0.00 0.00 48 1016.6
20260509021047 12 293 11.3 16.1 0.00 0.00 0.00 48 1016.6
20260509020047 12 203 8.0 11.3 0.00 0.00 0.00 49 1016.3
20260509015047 12 293 6.4 8.0 0.00 0.00 0.00 49 1016.3
20260509014047 12 315 4.8 6.4 0.00 0.00 0.00 51 1016.3
20260509013047 12 338 6.4 11.3 0.00 0.00 0.00 52 1016.3
20260509012047 12 23 4.8 6.4 0.00 0.00 0.00 53 1016.6
20260509011047 12 203 11.3 16.1 0.00 0.00 0.00 53 1016.3
20260509010049 12 248 6.4 8.0 0.00 0.00 0.00 54 1016.3
20260509003047 12 180 4.8 6.4 0.00 0.00 0.00 54 1016.3
20260509002047 12 90 1.6 1.6 0.00 0.00 0.00 55 1016.3
20260509001048 12 203 1.6 3.2 0.00 0.00 0.00 53 1016.0
20260509000047 12 113 4.8 6.4 0.00 0.00 0.00 53 1016.3
20260508235047 12 203 4.8 6.4 0.00 0.00 0.00 53 1016.0